{"data":{"norad_id":66420,"epoch":"2026-09-20T10:11:02.181120Z","epoch_age_seconds":134575,"freshness":"FRESH","line1":"1 66420U 25258J   26263.42433080 -.00000084  00000+0  85579-4 0  9993","line2":"2 66420  50.0034 313.7210 0000040  47.7897 312.2979 13.29329645 42390","mean_motion":13.29329645,"eccentricity":4.0e-6,"inclination_deg":50.0034,"raan_deg":313.721,"arg_perigee_deg":47.7897,"mean_anomaly_deg":312.2979,"bstar":8.5579e-5,"rev_number":4239,"period_min":108.32527548124,"perigee_km":1149.262702044,"apogee_km":1149.3229214825,"semimajor_km":7527.4298117633,"source":"CELESTRAK","updated_at":"2026-09-21T09:00:15.965127Z"}}